| time (UTC) | temp C | wind direction | speed KPH | gust KPH | rain 1hr cm | rain 24hr cm | rain mn cm | humidity % | barometer mb |
| 20260508011540 | 17 | 299 | 0.0 | 1.6 | 0.00 | 0.38 | 0.00 | 67 | 1014.9 |
| 20260508010530 | 17 | 0.0 | 0.0 | 0.00 | 0.41 | 0.00 | 67 | 1015.0 | |
| 20260508005521 | 17 | 0.0 | 1.6 | 0.00 | 0.43 | 0.00 | 67 | 1015.0 | |
| 20260508004631 | 16 | 0.0 | 0.0 | 0.00 | 0.43 | 0.00 | 69 | 1015.0 | |
| 20260508003601 | 16 | 0.0 | 0.0 | 0.00 | 0.43 | 0.00 | 71 | 1015.1 | |
| 20260508002551 | 16 | 0.0 | 0.0 | 0.00 | 0.46 | 0.00 | 72 | 1015.2 | |
| 20260508001541 | 16 | 0.0 | 0.0 | 0.00 | 0.48 | 0.00 | 71 | 1015.3 | |
| 20260508000531 | 16 | 0.0 | 0.0 | 0.00 | 0.51 | 0.00 | 71 | 1015.4 | |
| 20260507235521 | 16 | 149 | 0.0 | 3.2 | 0.00 | 0.51 | 0.00 | 70 | 1015.4 |
| 20260507234612 | 16 | 149 | 1.6 | 4.8 | 0.00 | 0.51 | 0.00 | 70 | 1015.5 |
| 20260507233602 | 16 | 149 | 3.2 | 4.8 | 0.00 | 0.51 | 0.00 | 69 | 1015.6 |
| 20260507232552 | 16 | 150 | 3.2 | 4.8 | 0.00 | 0.51 | 0.00 | 68 | 1015.6 |
| 20260507231542 | 17 | 150 | 1.6 | 4.8 | 0.00 | 0.51 | 0.00 | 68 | 1015.7 |
| 20260507230532 | 17 | 160 | 3.2 | 4.8 | 0.00 | 0.51 | 0.00 | 66 | 1015.9 |
| 20260507225522 | 17 | 151 | 3.2 | 4.8 | 0.00 | 0.51 | 0.00 | 65 | 1016.1 |
| 20260507224613 | 17 | 150 | 1.6 | 3.2 | 0.00 | 0.53 | 0.00 | 66 | 1016.1 |
| 20260507223603 | 17 | 144 | 1.6 | 3.2 | 0.00 | 0.53 | 0.00 | 66 | 1016.3 |
| 20260507222553 | 16 | 0.0 | 0.0 | 0.00 | 0.53 | 0.00 | 68 | 1016.2 | |
| 20260507221545 | 16 | 0.0 | 0.0 | 0.00 | 0.53 | 0.00 | 70 | 1016.3 | |
| 20260507220533 | 16 | 0.0 | 0.0 | 0.00 | 0.53 | 0.00 | 76 | 1016.3 | |
| 20260507215524 | 16 | 252 | 0.0 | 3.2 | 0.00 | 0.53 | 0.53 | 75 | 1016.5 |
| 20260507214615 | 16 | 0.0 | 0.0 | 0.00 | 0.53 | 0.53 | 73 | 1016.6 | |
| 20260507213605 | 16 | 123 | 0.0 | 3.2 | 0.00 | 0.53 | 0.53 | 71 | 1016.6 |
| 20260507212555 | 16 | 0.0 | 1.6 | 0.00 | 0.53 | 0.53 | 68 | 1016.6 | |
| 20260507211545 | 16 | 290 | 3.2 | 4.8 | 0.00 | 0.53 | 0.53 | 67 | 1016.6 |
| 20260507210535 | 16 | 326 | 3.2 | 4.8 | 0.00 | 0.53 | 0.53 | 66 | 1016.8 |
| 20260507205524 | 16 | 303 | 3.2 | 4.8 | 0.00 | 0.53 | 0.53 | 68 | 1016.7 |
| 20260507204615 | 16 | 319 | 3.2 | 4.8 | 0.00 | 0.53 | 0.53 | 67 | 1016.6 |
| 20260507203605 | 17 | 314 | 3.2 | 3.2 | 0.00 | 0.53 | 0.53 | 64 | 1016.7 |
| 20260507202615 | 17 | 305 | 3.2 | 4.8 | 0.00 | 0.53 | 0.53 | 62 | 1016.9 |
| 20260507201545 | 16 | 303 | 3.2 | 6.4 | 0.00 | 0.53 | 0.53 | 63 | 1016.9 |
| 20260507200536 | 16 | 309 | 3.2 | 3.2 | 0.00 | 0.53 | 0.53 | 69 | 1017.0 |
| 20260507195525 | 16 | 325 | 1.6 | 3.2 | 0.00 | 0.53 | 0.53 | 67 | 1017.0 |
| 20260507194618 | 16 | 297 | 3.2 | 4.8 | 0.00 | 0.53 | 0.53 | 67 | 1016.9 |
| 20260507193606 | 16 | 290 | 4.8 | 4.8 | 0.00 | 0.53 | 0.53 | 65 | 1017.0 |
| 20260507192555 | 16 | 292 | 4.8 | 6.4 | 0.00 | 0.53 | 0.53 | 68 | 1017.0 |
| 20260507191546 | 17 | 285 | 4.8 | 9.7 | 0.00 | 0.53 | 0.53 | 68 | 1016.9 |
| 20260507190536 | 16 | 313 | 4.8 | 9.7 | 0.00 | 0.53 | 0.53 | 67 | 1016.8 |
| 20260507185526 | 17 | 301 | 4.8 | 6.4 | 0.00 | 0.53 | 0.53 | 68 | 1016.9 |
| 20260507184516 | 17 | 278 | 6.4 | 11.3 | 0.00 | 0.53 | 0.53 | 62 | 1016.9 |
| 20260507183628 | 18 | 324 | 6.4 | 11.3 | 0.00 | 0.53 | 0.53 | 62 | 1016.9 |
| 20260507182557 | 17 | 327 | 6.4 | 12.9 | 0.00 | 0.53 | 0.53 | 63 | 1016.8 |
| 20260507181547 | 18 | 321 | 6.4 | 9.7 | 0.00 | 0.53 | 0.53 | 65 | 1016.8 |
| 20260507180558 | 18 | 287 | 8.0 | 12.9 | 0.00 | 0.53 | 0.53 | 64 | 1017.0 |
| 20260507175527 | 18 | 299 | 4.8 | 12.9 | 0.00 | 0.53 | 0.53 | 63 | 1016.9 |
| 20260507174517 | 18 | 310 | 4.8 | 6.4 | 0.00 | 0.56 | 0.53 | 63 | 1017.0 |
| 20260507173648 | 18 | 286 | 4.8 | 6.4 | 0.00 | 0.56 | 0.53 | 62 | 1016.9 |
| 20260507172558 | 18 | 284 | 4.8 | 6.4 | 0.00 | 0.56 | 0.53 | 61 | 1016.9 |
| 20260507171548 | 18 | 295 | 4.8 | 9.7 | 0.00 | 0.56 | 0.53 | 61 | 1016.9 |
| 20260507170558 | 19 | 280 | 4.8 | 9.7 | 0.00 | 0.56 | 0.53 | 61 | 1016.9 |
| 20260507165549 | 19 | 304 | 8.0 | 12.9 | 0.00 | 0.56 | 0.53 | 61 | 1016.8 |
| 20260507164519 | 19 | 267 | 6.4 | 11.3 | 0.00 | 0.56 | 0.53 | 62 | 1017.0 |
| 20260507163609 | 19 | 288 | 6.4 | 11.3 | 0.00 | 0.56 | 0.53 | 62 | 1016.8 |
| 20260507162559 | 19 | 326 | 4.8 | 9.7 | 0.00 | 0.56 | 0.53 | 63 | 1016.7 |
| 20260507161549 | 19 | 308 | 6.4 | 11.3 | 0.00 | 0.56 | 0.53 | 63 | 1016.8 |
| 20260507160540 | 20 | 326 | 6.4 | 11.3 | 0.00 | 0.56 | 0.53 | 63 | 1016.7 |
| 20260507155550 | 20 | 322 | 4.8 | 9.7 | 0.00 | 0.56 | 0.53 | 64 | 1016.8 |
| 20260507154519 | 20 | 316 | 6.4 | 11.3 | 0.00 | 0.56 | 0.53 | 64 | 1016.8 |
| 20260507153610 | 19 | 303 | 6.4 | 11.3 | 0.00 | 0.56 | 0.53 | 65 | 1016.9 |
| 20260507152600 | 20 | 291 | 6.4 | 12.9 | 0.00 | 0.56 | 0.53 | 64 | 1016.8 |
| 20260507151550 | 20 | 314 | 4.8 | 11.3 | 0.00 | 0.56 | 0.53 | 65 | 1017.0 |
| 20260507150540 | 20 | 310 | 6.4 | 11.3 | 0.00 | 0.56 | 0.53 | 66 | 1016.8 |
| 20260507145530 | 20 | 305 | 4.8 | 11.3 | 0.00 | 0.56 | 0.53 | 65 | 1016.9 |
| 20260507144520 | 20 | 298 | 3.2 | 6.4 | 0.00 | 0.56 | 0.53 | 66 | 1017.0 |
| 20260507143611 | 20 | 318 | 3.2 | 16.1 | 0.00 | 0.56 | 0.53 | 65 | 1017.0 |
| 20260507142601 | 20 | 301 | 8.0 | 16.1 | 0.00 | 0.56 | 0.53 | 67 | 1017.0 |
| 20260507141551 | 20 | 340 | 4.8 | 12.9 | 0.00 | 0.56 | 0.53 | 66 | 1017.3 |
| 20260507140602 | 20 | 320 | 3.2 | 6.4 | 0.00 | 0.56 | 0.53 | 66 | 1017.5 |
| 20260507135531 | 19 | 287 | 1.6 | 9.7 | 0.00 | 0.56 | 0.53 | 67 | 1017.8 |
| 20260507134521 | 20 | 296 | 3.2 | 4.8 | 0.00 | 0.56 | 0.53 | 67 | 1017.9 |
| 20260507133612 | 20 | 343 | 3.2 | 9.7 | 0.00 | 0.56 | 0.53 | 66 | 1018.1 |
| 20260507132622 | 21 | 109 | 1.6 | 4.8 | 0.00 | 0.56 | 0.53 | 60 | 1018.1 |
| 20260507131552 | 20 | 78 | 0.0 | 4.8 | 0.00 | 0.56 | 0.53 | 62 | 1018.1 |
| 20260507130542 | 20 | 312 | 0.0 | 4.8 | 0.00 | 0.56 | 0.53 | 61 | 1018.1 |
| 20260507125533 | 20 | 105 | 1.6 | 3.2 | 0.00 | 0.56 | 0.53 | 61 | 1018.2 |
| 20260507124522 | 20 | 344 | 3.2 | 6.4 | 0.00 | 0.56 | 0.53 | 64 | 1018.3 |
| 20260507123613 | 20 | 299 | 1.6 | 4.8 | 0.00 | 0.56 | 0.53 | 63 | 1018.4 |
| 20260507122603 | 21 | 61 | 0.0 | 1.6 | 0.00 | 0.56 | 0.53 | 61 | 1018.4 |
| 20260507121553 | 20 | 133 | 0.0 | 1.6 | 0.00 | 0.56 | 0.53 | 65 | 1018.6 |
| 20260507120543 | 19 | 293 | 1.6 | 9.7 | 0.00 | 0.56 | 0.53 | 69 | 1018.5 |
| 20260507115533 | 19 | 306 | 3.2 | 6.4 | 0.00 | 0.56 | 0.53 | 71 | 1018.6 |
| 20260507114523 | 19 | 338 | 1.6 | 4.8 | 0.00 | 0.56 | 0.53 | 71 | 1018.6 |
| 20260507113614 | 19 | 230 | 3.2 | 9.7 | 0.00 | 0.56 | 0.53 | 72 | 1018.8 |
| 20260507112604 | 18 | 345 | 3.2 | 9.7 | 0.00 | 0.56 | 0.53 | 73 | 1018.7 |
| 20260507111554 | 19 | 112 | 0.0 | 3.2 | 0.00 | 0.56 | 0.53 | 72 | 1018.9 |
| 20260507110545 | 18 | 91 | 1.6 | 4.8 | 0.00 | 0.56 | 0.53 | 75 | 1018.8 |
| 20260507105534 | 18 | 329 | 6.4 | 11.3 | 0.00 | 0.56 | 0.53 | 75 | 1018.9 |
| 20260507104524 | 18 | 290 | 6.4 | 9.7 | 0.00 | 0.56 | 0.53 | 75 | 1019.0 |
| 20260507103635 | 17 | 330 | 1.6 | 4.8 | 0.00 | 0.56 | 0.53 | 76 | 1019.0 |
| 20260507102605 | 18 | 288 | 3.2 | 6.4 | 0.00 | 0.56 | 0.53 | 75 | 1019.2 |
| 20260507101615 | 17 | 356 | 0.0 | 3.2 | 0.00 | 0.56 | 0.53 | 76 | 1019.3 |
| 20260507100545 | 17 | 295 | 4.8 | 9.7 | 0.00 | 0.56 | 0.53 | 77 | 1019.2 |
| 20260507095536 | 17 | 90 | 1.6 | 3.2 | 0.00 | 0.56 | 0.53 | 76 | 1019.2 |
| 20260507094546 | 17 | 300 | 4.8 | 6.4 | 0.00 | 0.56 | 0.53 | 76 | 1019.3 |
| 20260507093516 | 17 | 292 | 1.6 | 4.8 | 0.00 | 0.56 | 0.53 | 75 | 1019.2 |
| 20260507092606 | 18 | 121 | 0.0 | 1.6 | 0.00 | 0.56 | 0.53 | 74 | 1019.0 |
| 20260507091556 | 17 | 150 | 0.0 | 3.2 | 0.00 | 0.56 | 0.53 | 77 | 1019.1 |
| 20260507090606 | 16 | 5 | 1.6 | 4.8 | 0.00 | 0.56 | 0.53 | 79 | 1019.0 |
| 20260507085537 | 15 | 312 | 3.2 | 6.4 | 0.00 | 0.56 | 0.53 | 80 | 1019.0 |
| 20260507084527 | 15 | 302 | 4.8 | 9.7 | 0.00 | 0.56 | 0.53 | 80 | 1019.1 |
| 20260507083517 | 15 | 303 | 3.2 | 9.7 | 0.00 | 0.56 | 0.53 | 80 | 1019.1 |
| 20260507082608 | 15 | 297 | 3.2 | 6.4 | 0.00 | 0.56 | 0.53 | 80 | 1019.2 |
| 20260507081558 | 15 | 301 | 3.2 | 6.4 | 0.00 | 0.56 | 0.53 | 79 | 1019.3 |
| 20260507080547 | 14 | 297 | 3.2 | 4.8 | 0.00 | 0.56 | 0.53 | 80 | 1019.4 |
| 20260507075618 | 13 | 312 | 1.6 | 4.8 | 0.00 | 0.56 | 0.53 | 82 | 1019.5 |
| 20260507074528 | 13 | 278 | 1.6 | 4.8 | 0.00 | 0.56 | 0.53 | 82 | 1019.4 |
| 20260507073518 | 13 | 301 | 1.6 | 4.8 | 0.00 | 0.56 | 0.53 | 84 | 1019.3 |
| 20260507072608 | 13 | 307 | 1.6 | 4.8 | 0.00 | 0.56 | 0.53 | 85 | 1019.5 |
| 20260507071559 | 13 | 257 | 0.0 | 3.2 | 0.00 | 0.56 | 0.53 | 86 | 1019.4 |
| 20260507070608 | 12 | 306 | 3.2 | 3.2 | 0.00 | 0.56 | 0.53 | 87 | 1019.4 |
| 20260507065539 | 12 | 290 | 3.2 | 4.8 | 0.00 | 0.56 | 0.53 | 87 | 1019.2 |
| 20260507064529 | 13 | 330 | 3.2 | 4.8 | 0.00 | 0.56 | 0.53 | 87 | 1019.0 |
| 20260507063539 | 13 | 305 | 3.2 | 4.8 | 0.00 | 0.56 | 0.53 | 85 | 1018.9 |
| 20260507062609 | 13 | 143 | 4.8 | 11.3 | 0.00 | 0.56 | 0.53 | 84 | 1018.8 |
| 20260507061559 | 12 | 154 | 4.8 | 9.7 | 0.00 | 0.58 | 0.53 | 85 | 1018.7 |
| 20260507060548 | 12 | 149 | 4.8 | 9.7 | 0.00 | 0.58 | 0.53 | 87 | 1018.8 |
| 20260507055539 | 12 | 147 | 6.4 | 9.7 | 0.00 | 0.61 | 0.53 | 88 | 1018.6 |
| 20260507054531 | 12 | 148 | 3.2 | 4.8 | 0.00 | 0.61 | 0.53 | 87 | 1018.7 |
| 20260507053519 | 12 | 150 | 4.8 | 6.4 | 0.00 | 0.64 | 0.53 | 86 | 1018.8 |
| 20260507052610 | 12 | 153 | 4.8 | 6.4 | 0.00 | 0.64 | 0.53 | 86 | 1018.8 |
| 20260507051600 | 12 | 150 | 3.2 | 4.8 | 0.00 | 0.64 | 0.53 | 86 | 1018.7 |
| 20260507050550 | 12 | 148 | 4.8 | 6.4 | 0.00 | 0.66 | 0.53 | 86 | 1018.6 |
| 20260507045540 | 12 | 151 | 3.2 | 6.4 | 0.00 | 0.66 | 0.53 | 85 | 1018.6 |
| 20260507044530 | 12 | 157 | 3.2 | 4.8 | 0.00 | 0.66 | 0.53 | 85 | 1018.6 |
| 20260507043541 | 11 | 155 | 3.2 | 6.4 | 0.00 | 0.66 | 0.53 | 87 | 1018.6 |
| 20260507042611 | 11 | 150 | 6.4 | 9.7 | 0.00 | 0.66 | 0.53 | 87 | 1018.7 |
| 20260507041601 | 11 | 0.0 | 0.0 | 0.03 | 0.66 | 0.53 | 89 | 1018.7 | |
| 20260507040612 | 11 | 0.0 | 0.0 | 0.03 | 0.66 | 0.53 | 88 | 1018.7 | |
| 20260507035542 | 11 | 142 | 4.8 | 6.4 | 0.03 | 0.66 | 0.53 | 89 | 1018.4 |
| 20260507034532 | 11 | 159 | 3.2 | 6.4 | 0.05 | 0.66 | 0.53 | 89 | 1018.3 |
| 20260507033521 | 11 | 154 | 1.6 | 4.8 | 0.08 | 0.66 | 0.53 | 89 | 1018.3 |
| 20260507032632 | 11 | 167 | 8.0 | 12.9 | 0.10 | 0.66 | 0.53 | 90 | 1018.2 |
| 20260507031622 | 11 | 148 | 4.8 | 11.3 | 0.10 | 0.64 | 0.51 | 91 | 1018.4 |
| 20260507030551 | 11 | 148 | 1.6 | 4.8 | 0.13 | 0.64 | 0.51 | 91 | 1018.6 |
| 20260507025543 | 11 | 0.0 | 0.0 | 0.15 | 0.64 | 0.51 | 91 | 1018.6 | |
| 20260507024553 | 11 | 0.0 | 0.0 | 0.15 | 0.61 | 0.48 | 90 | 1018.6 | |
| 20260507023522 | 11 | 0.0 | 4.8 | 0.15 | 0.58 | 0.46 | 90 | 1018.6 | |
| 20260507022613 | 11 | 191 | 1.6 | 4.8 | 0.20 | 0.56 | 0.43 | 90 | 1018.4 |
| 20260507021603 | 11 | 163 | 1.6 | 6.4 | 0.25 | 0.53 | 0.41 | 91 | 1018.5 |
| 20260507020554 | 11 | 0.0 | 0.0 | 0.25 | 0.53 | 0.38 | 91 | 1018.5 | |
| 20260507015543 | 11 | 0.0 | 0.0 | 0.25 | 0.51 | 0.36 | 90 | 1018.5 | |
| 20260507014533 | 11 | 0.0 | 0.0 | 0.23 | 0.48 | 0.33 | 90 | 1018.6 | |
| 20260507013523 | 11 | 0.0 | 0.0 | 0.20 | 0.46 | 0.30 | 90 | 1018.6 | |
| 20260507012614 | 11 | 0.0 | 3.2 | 0.15 | 0.38 | 0.23 | 90 | 1018.6 |